User: anonymous   Login
Location: Bonny Doon Airfield
(37.0704°N, 122.1252°W)
Time: 04:31:03
(UTC-07:00)
Language:

AIST 2D - Orbit

View from above orbital plane
View from above orbital plane
View from above satellite
View from above satellite

Ground track
Ground track

The orbit data is extracted from the following two-line orbital elements,

1 41465U 16026B   18200.05292742  .00001297  00000-0  43292-4 0  9990
2 41465  97.2196  98.8844 0009759 239.2077 234.0733 15.32801300124223
Epoch (UTC): 19 July 2018 01:16:12
Eccentricity: 0.0009759
inclination: 97.2196°
perigee height: 461 km
apogee height: 474 km
right ascension of ascending node: 98.8844°
argument of perigee: 239.2077°
revolutions per day: 15.32801300
mean anomaly at epoch: 234.0733°
orbit number at epoch: 12422

The dashed part of the orbit path shows where the satellite is in the earth's shadow,  

DLR